| time (UTC) | temp F | wind direction | speed MPH | gust MPH | rain 1hr in | rain 24hr in | rain mn in | humidity % | barometer mb |
| 20260905161132 | 88 | 238 | 0.0 | 4.0 | 0.00 | 0.00 | 0.00 | 52 | 1017.8 |
| 20260905160145 | 88 | 237 | 0.0 | 4.0 | 0.00 | 0.00 | 0.00 | 51 | 1017.8 |
| 20260905155126 | 88 | 235 | 0.0 | 4.0 | 0.00 | 0.00 | 0.00 | 54 | 1017.7 |
| 20260905154124 | 89 | 221 | 2.0 | 3.0 | 0.00 | 0.00 | 0.00 | 50 | 1017.7 |
| 20260905153120 | 88 | 108 | 0.0 | 3.0 | 0.00 | 0.00 | 0.00 | 50 | 1017.7 |
| 20260905152135 | 88 | 105 | 1.0 | 3.0 | 0.00 | 0.00 | 0.00 | 49 | 1017.8 |
| 20260905151137 | 88 | 105 | 1.0 | 4.0 | 0.00 | 0.00 | 0.00 | 52 | 1017.8 |
| 20260905150120 | 88 | 105 | 0.0 | 2.0 | 0.00 | 0.00 | 0.00 | 50 | 1017.9 |
| 20260905145128 | 88 | 101 | 1.0 | 4.0 | 0.00 | 0.00 | 0.00 | 51 | 1017.9 |
| 20260905144133 | 87 | 117 | 1.0 | 4.0 | 0.00 | 0.00 | 0.00 | 50 | 1017.9 |
| 20260905143135 | 88 | 117 | 0.0 | 3.0 | 0.00 | 0.00 | 0.00 | 49 | 1018.0 |
| 20260905142156 | 88 | 119 | 1.0 | 4.0 | 0.00 | 0.00 | 0.00 | 50 | 1018.1 |
| 20260905141122 | 89 | 90 | 1.0 | 4.0 | 0.00 | 0.00 | 0.00 | 47 | 1018.0 |
| 20260905140122 | 89 | 91 | 1.0 | 2.0 | 0.00 | 0.00 | 0.00 | 47 | 1018.0 |
| 20260905135157 | 89 | 128 | 1.0 | 3.0 | 0.00 | 0.00 | 0.00 | 47 | 1018.1 |
| 20260905134137 | 90 | 178 | 1.0 | 3.0 | 0.00 | 0.00 | 0.00 | 45 | 1018.1 |
| 20260905133121 | 90 | 96 | 1.0 | 3.0 | 0.00 | 0.00 | 0.00 | 46 | 1018.3 |
| 20260905132128 | 90 | 94 | 0.0 | 3.0 | 0.00 | 0.00 | 0.00 | 47 | 1018.3 |
| 20260905131126 | 90 | 100 | 0.0 | 3.0 | 0.00 | 0.00 | 0.00 | 51 | 1018.3 |
| 20260905130130 | 89 | 81 | 0.0 | 4.0 | 0.00 | 0.00 | 0.00 | 52 | 1018.4 |
| 20260905125131 | 89 | 180 | 0.0 | 2.0 | 0.00 | 0.00 | 0.00 | 54 | 1018.5 |
| 20260905124138 | 88 | 118 | 1.0 | 4.0 | 0.00 | 0.00 | 0.00 | 53 | 1018.5 |
| 20260905123138 | 88 | 128 | 1.0 | 3.0 | 0.00 | 0.00 | 0.00 | 54 | 1018.5 |
| 20260905122137 | 88 | 129 | 0.0 | 3.0 | 0.00 | 0.00 | 0.00 | 51 | 1018.6 |
| 20260905121118 | 88 | 132 | 1.0 | 3.0 | 0.00 | 0.00 | 0.00 | 55 | 1018.6 |
| 20260905120123 | 88 | 131 | 2.0 | 5.0 | 0.00 | 0.00 | 0.00 | 54 | 1018.6 |
| 20260905115123 | 88 | 122 | 1.0 | 3.0 | 0.00 | 0.00 | 0.00 | 52 | 1018.7 |
| 20260905114127 | 87 | 96 | 0.0 | 4.0 | 0.00 | 0.00 | 0.00 | 57 | 1018.8 |
| 20260905113131 | 87 | 98 | 1.0 | 3.0 | 0.00 | 0.00 | 0.00 | 55 | 1018.8 |
| 20260905112134 | 88 | 98 | 1.0 | 3.0 | 0.00 | 0.00 | 0.00 | 55 | 1018.8 |
| 20260905111121 | 87 | 98 | 1.0 | 4.0 | 0.00 | 0.00 | 0.00 | 56 | 1018.8 |
| 20260905110123 | 86 | 95 | 0.0 | 2.0 | 0.00 | 0.00 | 0.00 | 54 | 1018.8 |
| 20260905105126 | 86 | 100 | 1.0 | 4.0 | 0.00 | 0.00 | 0.00 | 55 | 1018.9 |
| 20260905104130 | 85 | 74 | 0.0 | 5.0 | 0.00 | 0.00 | 0.00 | 59 | 1018.7 |
| 20260905103137 | 84 | 47 | 2.0 | 4.0 | 0.00 | 0.00 | 0.00 | 59 | 1018.9 |
| 20260905102118 | 84 | 47 | 2.0 | 4.0 | 0.00 | 0.00 | 0.00 | 59 | 1018.9 |
| 20260905101120 | 84 | 48 | 1.0 | 4.0 | 0.00 | 0.00 | 0.00 | 58 | 1018.9 |
| 20260905100124 | 83 | 48 | 2.0 | 4.0 | 0.00 | 0.00 | 0.00 | 58 | 1019.0 |
| 20260905095130 | 83 | 49 | 0.0 | 4.0 | 0.00 | 0.00 | 0.00 | 58 | 1019.0 |
| 20260905094128 | 83 | 48 | 1.0 | 2.0 | 0.00 | 0.00 | 0.00 | 57 | 1019.0 |
| 20260905093133 | 82 | 48 | 1.0 | 3.0 | 0.00 | 0.00 | 0.00 | 58 | 1019.0 |
| 20260905092136 | 82 | 48 | 1.0 | 3.0 | 0.00 | 0.00 | 0.00 | 62 | 1018.8 |
| 20260905091124 | 82 | 12 | 0.0 | 5.0 | 0.00 | 0.00 | 0.00 | 62 | 1018.8 |
| 20260905090148 | 81 | 13 | 1.0 | 3.0 | 0.00 | 0.00 | 0.00 | 60 | 1018.7 |
| 20260905085129 | 81 | 13 | 1.0 | 4.0 | 0.00 | 0.00 | 0.00 | 62 | 1018.7 |
| 20260905084133 | 79 | 360 | 1.0 | 4.0 | 0.00 | 0.00 | 0.00 | 62 | 1018.7 |
| 20260905083139 | 78 | 59 | 1.0 | 3.0 | 0.00 | 0.00 | 0.00 | 68 | 1018.7 |
| 20260905082121 | 76 | 319 | 0.0 | 4.0 | 0.00 | 0.00 | 0.00 | 68 | 1018.7 |
| 20260905081124 | 76 | 305 | 1.0 | 3.0 | 0.00 | 0.00 | 0.00 | 73 | 1018.6 |
| 20260905080128 | 75 | 305 | 0.0 | 2.0 | 0.00 | 0.00 | 0.00 | 74 | 1018.6 |
| 20260905075153 | 75 | 305 | 1.0 | 3.0 | 0.00 | 0.00 | 0.00 | 75 | 1018.6 |
| 20260905074118 | 75 | 305 | 0.0 | 2.0 | 0.00 | 0.00 | 0.00 | 73 | 1018.3 |
| 20260905073120 | 74 | 305 | 0.0 | 0.0 | 0.00 | 0.00 | 0.00 | 72 | 1018.3 |
| 20260905072123 | 73 | 305 | 0.0 | 0.0 | 0.00 | 0.00 | 0.00 | 75 | 1018.3 |
| 20260905071126 | 73 | 305 | 0.0 | 0.0 | 0.00 | 0.00 | 0.00 | 74 | 1018.3 |
| 20260905070134 | 72 | 305 | 0.0 | 1.0 | 0.00 | 0.00 | 0.00 | 77 | 1018.3 |
| 20260905065118 | 72 | 305 | 1.0 | 2.0 | 0.00 | 0.00 | 0.00 | 77 | 1018.3 |
| 20260905064142 | 72 | 306 | 0.0 | 1.0 | 0.00 | 0.00 | 0.00 | 74 | 1018.2 |
| 20260905063123 | 71 | 306 | 0.0 | 2.0 | 0.00 | 0.00 | 0.00 | 74 | 1018.2 |
| 20260905062148 | 71 | 305 | 0.0 | 0.0 | 0.00 | 0.00 | 0.00 | 77 | 1018.1 |
| 20260905061135 | 71 | 305 | 0.0 | 2.0 | 0.00 | 0.00 | 0.00 | 75 | 1018.1 |
| 20260905060137 | 71 | 305 | 0.0 | 2.0 | 0.00 | 0.00 | 0.00 | 74 | 1018.1 |
| 20260905055140 | 71 | 306 | 0.0 | 1.0 | 0.00 | 0.00 | 0.00 | 73 | 1017.9 |
| 20260905054122 | 71 | 306 | 0.0 | 1.0 | 0.00 | 0.00 | 0.00 | 73 | 1017.9 |
| 20260905053150 | 71 | 306 | 1.0 | 3.0 | 0.00 | 0.00 | 0.00 | 72 | 1017.8 |
| 20260905052131 | 72 | 311 | 1.0 | 3.0 | 0.00 | 0.00 | 0.00 | 71 | 1017.7 |
| 20260905051135 | 72 | 301 | 0.0 | 2.0 | 0.00 | 0.00 | 0.00 | 70 | 1017.5 |
| 20260905050118 | 72 | 59 | 1.0 | 4.0 | 0.00 | 0.00 | 0.00 | 69 | 1017.5 |
| 20260905045127 | 72 | 250 | 0.0 | 4.0 | 0.00 | 0.00 | 0.00 | 70 | 1017.3 |
| 20260905044133 | 72 | 120 | 1.0 | 5.0 | 0.00 | 0.00 | 0.00 | 70 | 1017.3 |
| 20260905043137 | 72 | 157 | 1.0 | 4.0 | 0.00 | 0.00 | 0.00 | 71 | 1017.3 |
| 20260905042151 | 72 | 329 | 1.0 | 3.0 | 0.00 | 0.00 | 0.00 | 69 | 1017.2 |
| 20260905041133 | 72 | 329 | 0.0 | 5.0 | 0.00 | 0.00 | 0.00 | 69 | 1017.2 |
| 20260905040121 | 72 | 71 | 1.0 | 5.0 | 0.00 | 0.00 | 0.00 | 70 | 1017.3 |
| 20260905035123 | 72 | 97 | 0.0 | 3.0 | 0.00 | 0.00 | 0.00 | 71 | 1017.3 |
| 20260905034127 | 72 | 60 | 0.0 | 5.0 | 0.00 | 0.00 | 0.00 | 70 | 1017.3 |
| 20260905033132 | 72 | 173 | 0.0 | 3.0 | 0.00 | 0.00 | 0.00 | 70 | 1017.3 |
| 20260905032119 | 72 | 223 | 1.0 | 5.0 | 0.00 | 0.00 | 0.00 | 71 | 1017.3 |
| 20260905031122 | 72 | 229 | 0.0 | 1.0 | 0.00 | 0.00 | 0.00 | 72 | 1017.5 |
| 20260905030127 | 72 | 229 | 0.0 | 3.0 | 0.00 | 0.00 | 0.00 | 70 | 1017.4 |
| 20260905025151 | 72 | 253 | 1.0 | 5.0 | 0.00 | 0.00 | 0.00 | 70 | 1017.6 |
| 20260905024134 | 72 | 40 | 0.0 | 3.0 | 0.00 | 0.00 | 0.00 | 70 | 1017.6 |
| 20260905023122 | 72 | 40 | 0.0 | 1.0 | 0.00 | 0.00 | 0.00 | 70 | 1017.6 |
| 20260905022127 | 73 | 40 | 1.0 | 5.0 | 0.00 | 0.00 | 0.00 | 69 | 1017.7 |
| 20260905021131 | 72 | 229 | 1.0 | 3.0 | 0.00 | 0.00 | 0.00 | 70 | 1017.6 |
| 20260905020135 | 72 | 201 | 1.0 | 5.0 | 0.00 | 0.00 | 0.00 | 71 | 1017.5 |
| 20260905015121 | 73 | 244 | 1.0 | 5.0 | 0.00 | 0.00 | 0.00 | 71 | 1017.6 |
| 20260905014123 | 73 | 306 | 0.0 | 6.0 | 0.00 | 0.00 | 0.00 | 70 | 1017.7 |
| 20260905013148 | 73 | 44 | 0.0 | 4.0 | 0.00 | 0.00 | 0.00 | 69 | 1017.8 |
| 20260905012131 | 74 | 41 | 1.0 | 5.0 | 0.00 | 0.00 | 0.00 | 67 | 1017.8 |
| 20260905011120 | 74 | 112 | 1.0 | 6.0 | 0.00 | 0.00 | 0.00 | 67 | 1017.8 |
| 20260905010124 | 74 | 188 | 1.0 | 3.0 | 0.00 | 0.00 | 0.00 | 67 | 1017.8 |
| 20260905005148 | 74 | 304 | 0.0 | 3.0 | 0.00 | 0.00 | 0.00 | 68 | 1017.9 |
| 20260905004150 | 74 | 229 | 0.0 | 2.0 | 0.00 | 0.00 | 0.00 | 67 | 1017.9 |
| 20260905003153 | 74 | 237 | 1.0 | 6.0 | 0.00 | 0.00 | 0.00 | 67 | 1018.0 |
| 20260905002140 | 74 | 250 | 1.0 | 3.0 | 0.00 | 0.00 | 0.00 | 68 | 1018.1 |
| 20260905001142 | 74 | 19 | 0.0 | 4.0 | 0.00 | 0.00 | 0.00 | 67 | 1018.0 |
| 20260905000126 | 74 | 59 | 0.0 | 6.0 | 0.00 | 0.00 | 0.00 | 68 | 1018.3 |
| 20260904235129 | 74 | 37 | 0.0 | 2.0 | 0.00 | 0.00 | 0.00 | 68 | 1018.4 |
| 20260904234133 | 74 | 296 | 1.0 | 4.0 | 0.00 | 0.00 | 0.00 | 69 | 1018.3 |
| 20260904233122 | 74 | 74 | 0.0 | 8.0 | 0.00 | 0.00 | 0.00 | 69 | 1018.3 |
| 20260904232125 | 74 | 342 | 1.0 | 5.0 | 0.00 | 0.00 | 0.00 | 70 | 1018.5 |
| 20260904231129 | 74 | 289 | 1.0 | 4.0 | 0.00 | 0.00 | 0.00 | 69 | 1018.5 |
| 20260904230132 | 75 | 338 | 1.0 | 6.0 | 0.00 | 0.00 | 0.00 | 68 | 1018.5 |
| 20260904225119 | 75 | 44 | 1.0 | 10.0 | 0.00 | 0.00 | 0.00 | 67 | 1018.4 |
| 20260904224123 | 75 | 63 | 1.0 | 5.0 | 0.00 | 0.00 | 0.00 | 67 | 1018.5 |
| 20260904223127 | 75 | 336 | 1.0 | 8.0 | 0.00 | 0.00 | 0.00 | 66 | 1018.5 |
| 20260904222127 | 75 | 46 | 1.0 | 8.0 | 0.00 | 0.00 | 0.00 | 66 | 1018.5 |
| 20260904221134 | 75 | 9 | 1.0 | 6.0 | 0.00 | 0.00 | 0.00 | 67 | 1018.5 |
| 20260904220154 | 74 | 266 | 1.0 | 3.0 | 0.00 | 0.00 | 0.00 | 69 | 1018.6 |
| 20260904215133 | 74 | 273 | 1.0 | 4.0 | 0.00 | 0.00 | 0.00 | 70 | 1018.6 |
| 20260904214134 | 74 | 238 | 0.0 | 1.0 | 0.00 | 0.00 | 0.00 | 71 | 1018.6 |
| 20260904213121 | 74 | 238 | 0.0 | 2.0 | 0.00 | 0.00 | 0.00 | 70 | 1018.7 |
| 20260904212142 | 74 | 238 | 0.0 | 3.0 | 0.00 | 0.00 | 0.00 | 69 | 1018.8 |
| 20260904211123 | 74 | 238 | 1.0 | 2.0 | 0.00 | 0.00 | 0.00 | 69 | 1018.9 |
| 20260904210126 | 74 | 238 | 0.0 | 3.0 | 0.00 | 0.00 | 0.00 | 70 | 1019.0 |
| 20260904205127 | 75 | 238 | 1.0 | 2.0 | 0.00 | 0.00 | 0.00 | 68 | 1019.0 |
| 20260904204134 | 76 | 238 | 0.0 | 2.0 | 0.00 | 0.00 | 0.00 | 66 | 1019.1 |
| 20260904203132 | 77 | 238 | 0.0 | 3.0 | 0.00 | 0.00 | 0.00 | 64 | 1019.1 |
| 20260904202133 | 77 | 238 | 1.0 | 3.0 | 0.00 | 0.00 | 0.00 | 63 | 1019.0 |
| 20260904201137 | 77 | 235 | 1.0 | 3.0 | 0.00 | 0.00 | 0.00 | 64 | 1019.0 |
| 20260904200123 | 77 | 236 | 0.0 | 3.0 | 0.00 | 0.00 | 0.00 | 64 | 1019.0 |
| 20260904195146 | 77 | 240 | 1.0 | 2.0 | 0.00 | 0.00 | 0.00 | 63 | 1019.0 |
| 20260904194128 | 78 | 245 | 1.0 | 4.0 | 0.00 | 0.00 | 0.00 | 63 | 1019.0 |
| 20260904193151 | 78 | 274 | 1.0 | 4.0 | 0.00 | 0.00 | 0.00 | 63 | 1018.9 |
| 20260904192133 | 78 | 100 | 0.0 | 3.0 | 0.00 | 0.00 | 0.00 | 63 | 1018.9 |
| 20260904191121 | 78 | 90 | 1.0 | 3.0 | 0.00 | 0.00 | 0.00 | 62 | 1018.7 |
| 20260904190123 | 78 | 91 | 1.0 | 3.0 | 0.00 | 0.00 | 0.00 | 63 | 1018.7 |
| 20260904185127 | 79 | 91 | 1.0 | 2.0 | 0.00 | 0.00 | 0.00 | 63 | 1018.7 |
| 20260904184123 | 79 | 91 | 0.0 | 2.0 | 0.00 | 0.00 | 0.00 | 63 | 1018.6 |
| 20260904183131 | 78 | 91 | 0.0 | 3.0 | 0.00 | 0.00 | 0.00 | 62 | 1018.5 |
| 20260904182133 | 78 | 103 | 0.0 | 2.0 | 0.00 | 0.00 | 0.00 | 63 | 1018.5 |
| 20260904181156 | 78 | 186 | 0.0 | 1.0 | 0.00 | 0.00 | 0.00 | 66 | 1018.5 |
| 20260904180137 | 78 | 186 | 0.0 | 1.0 | 0.00 | 0.00 | 0.00 | 65 | 1018.4 |
| 20260904175124 | 79 | 186 | 0.0 | 2.0 | 0.00 | 0.00 | 0.00 | 64 | 1018.3 |
| 20260904174127 | 80 | 186 | 0.0 | 1.0 | 0.00 | 0.00 | 0.00 | 63 | 1018.3 |
| 20260904173131 | 81 | 186 | 0.0 | 2.0 | 0.00 | 0.00 | 0.00 | 61 | 1018.3 |
| 20260904172131 | 83 | 186 | 0.0 | 1.0 | 0.00 | 0.00 | 0.00 | 59 | 1018.3 |
| 20260904171155 | 84 | 186 | 0.0 | 2.0 | 0.00 | 0.00 | 0.00 | 55 | 1018.3 |
| 20260904170121 | 85 | 186 | 0.0 | 2.0 | 0.00 | 0.00 | 0.00 | 54 | 1018.3 |
| 20260904165126 | 86 | 186 | 0.0 | 1.0 | 0.00 | 0.00 | 0.00 | 52 | 1018.2 |
| 20260904164128 | 87 | 186 | 0.0 | 2.0 | 0.00 | 0.00 | 0.00 | 51 | 1018.4 |
| 20260904163131 | 88 | 185 | 0.0 | 1.0 | 0.00 | 0.00 | 0.00 | 44 | 1018.4 |
| 20260904162139 | 89 | 186 | 0.0 | 2.0 | 0.00 | 0.00 | 0.00 | 44 | 1018.5 |